View from above orbital plane
|
View from above satellite
|
Ground track
|
The orbit data is extracted from the following two-line orbital elements,
1 5117U 71028A 21103.15957138 .00001675 00000-0 45094-4 0 9993
2 5117 81.2609 144.3111 0009805 13.9955 16.7250 15.37186019726873
Epoch (UTC): | 13 April 2021 03:49:46 |
Eccentricity: | 0.0009805 |
inclination: | 81.2609° |
perigee height: | 448 km |
apogee height: | 461 km |
right ascension of ascending node: | 144.3111° |
argument of perigee: | 13.9955° |
revolutions per day: | 15.37186019 |
mean anomaly at epoch: | 16.7250° |
orbit number at epoch: | 72687 |
The dashed part of the orbit path shows where the satellite is in the earth's shadow,
|
|